Погода в Каргополе

Погода в Каргополе : погода сейчас, прогноз погоды и архив. Всё, что Вы хотите узнать о погоде в Каргополе!

Хотите узнать прогноз погоды в Каргополе? Тогда Вам сюда: Погода в Каргополе

Поиск расширенной информации на нашем сайте:

Другие новости

Новости СМИ2

Главная страница сайта

Новости сайта

03.07.2017

Напоминаем, что на нашем специализированном сайте Метеоцентр.Азия вы можете получить высокодетализированные автоматические прогнозы погоды по пунктам России, СНГ и мира в авиационном формате (включающие направление и скорость ветра, видимость, явления погоды, количество и форму облачности, нижнюю и верхнюю границу облачности).


Погода в Каргополе - сегодня

Время (UTC), дата Ветер
(°,м/с) 
Видим.   Явления Облачность Т
(°С)
Тd
(°С)
f(%) Тe
(°С)
Pmin
(гПа)
dP
(гПа)
Po
(мм)
O2
(г/м3)
Тmin Tmax R s Состояние
почвы
09 19.09.17 тихо ()   10 км  слаб. ливневой дождь  10/10 330 м кучево-дожд. 
[Cb cap]
+12.4 +12.4 100 +17  997.9  0.7  737  282           
12 19.09.17 200 (Ю) 20000 м  {ливн. осадки}  10/10 600 м кучево-дожд. 
[Cb cap]
+13.3 +12.6 96 +19  999.6  1.7  739  281           
15 19.09.17 220 (ЮЗ) 20000 м    10/10 600 м кучево-дожд. 
[Cb cap]
+12.6 +12.5 99 +19  1001.7  2.1  740  283    +13.4     
18 19.09.17 360 (С) 10 км  слаб. ливневой дождь  10/10 240 м кучево-дожд. 
[Cb cap]
+10.4 +10.4 100 +13  1004.4  2.5  742  286           
21 19.09.17 350 (С) 10 км  слаб. дождь{ливн. осадки}  10/8 150 м средняя 
[Frnb|As op]
+7.6 +7.6 100 +8  1007.8  3.2  744  290           
00 20.09.17 350 (С) 10 км  слаб. дождь{ливн. осадки}  10/8 330 м средняя 
[Frnb|As op]
+5.8 +5.8 100 +6  1011.2  3.2  747  294           
03 20.09.17 350 (С) 20000 м  в посл. час дождь  10/8 150 м средняя 
[Frnb|As op]
+5.1 +5.1 100 +5  1014  2.7  749  295  +5.1      мокрая 
06 20.09.17 350 (С) 4000 м  слаб. дождь  10/8 150 м средняя 
[Frnb|As op]
+5.3 +5.3 100 +5  1017.2  3.2  751  296  +5.1         
09 20.09.17 350 (С) 20000 м  {ливн. осадки, дождь}  10/8 800 м кучево-дожд., средняя 
[Cb cap|As op]
+6.4 +6.1 98 +6  1020.1  2.9  753  296           
12 20.09.17 340 (С) 20000 м  {ливн. осадки, дождь}  10/8 750 м кучево-дожд., средняя 
[Cb cap|As op]
+7.5 +6.6 94 +8  1022.5  2.4  755  295           
15 20.09.17 360 (С) 20000 м    9/9 1000 м 
[Sc diur, vesp]
+7 +7 100 +8  1024.3  1.8  757  296    +7.8  0.0     
18 20.09.17 360 (С) 4000 м  дымка  10/10 270 м 
[Sc]
+4.3 +4.3 100 +5  1026.6  2.1  758  300           
21 20.09.17 330 (СЗ) 1000 м  дымка  10/10 240 м 
[Sc]
+5.1 +5.1 100 +6  1028.6  760  300           
00 21.09.17 020 (С) 1000 м  дымка  10/10 240 м 
[Sc]
+5.5 +5.5 100 +6  1030.3  1.7  761  300           
03 21.09.17 030 (СВ) 4000 м  слаб. морось  10/10 300 м 
[St]
+5.5 +5.5 100 +6  1032  1.7  762  300  +3.8        мокрая 
06 21.09.17 050 (СВ) 4000 м  в посл. час морось  10/10 480 м 
[Frnb]
+6.5 +6.5 100 +7  1033.9  1.9  764  299           
09 21.09.17 060 (СВ) 20000 м    9/9 570 м кучево-дожд. 
[Cb cap]
+8.4 +6.6 88 +8  1035.2  1.4  765  298           
12 21.09.17 060 (СВ) 20000 м    9/9 630 м кучево-дожд. 
[Cb cap]
+8.5 +6.9 90 +10  1036.3  1.1  766  298           
15 21.09.17 090 (В) 20000 м    9/9 750 м 
[Sc]
+7.2 +5.6 90 +7  1037.6  1.2  766  300    +9.7  0.4     
18 21.09.17 090 (В) 20000 м    9/9 900 м 
[Sc]
+6.7 +5 89 +8  1038.4  0.7  767  301           
21 21.09.17 060 (СВ) 20000 м    ясно 
+3.6 +3.6 100 +4  1039.8  1.2  768  305           
00 22.09.17 360 (С) 20000 м    ясно 
+1.4 +1.4 100 +2  1040.8  0.8  768  308           
03 22.09.17 010 (С) 20000 м    8/0 верхняя 
[Ci fib]
+1.7 +1.7 100 +2  1040.7  768  307  +0.5         
06 22.09.17 160 (Ю) 20000 м    9/0 верхняя 
[Ci fib]
+5.5 +5.1 97 +6  1040.6  0.2  769  303           
09 22.09.17 160 (Ю) 20000 м    10/3 1000 м верхняя 
[Sc|Ci fib]
+10.7 +5.8 72 +11  1039.6  -0.8  768  297           
Время (UTC), дата Ветер
(°,м/с) 
Видим.   Явления Облачность Т
(°С)
Тd
(°С)
f(%) Тe
(°С)
Pmin
(гПа)
dP
(гПа)
Po
(мм)
O2
(г/м3)
Тmin Tmax R s Состояние
почвы

Для получения пояснительной информации подведите курсор к названию столбца.

ПОГОДА в Каргополе - архив

Всё, что Вы хотите узнать о погоде в Каргополе - удобно и подробно!

Выберите нужную дату (начиная с 1 января 2015* года) и нажмите кнопку "Найти".
Будут отображены архивные сводки погоды по пункту Каргополь, начиная с указанной даты.


Отображать данные в формате CSV (для использования в таблицах Excel)


Внимание! Наш архив погоды предназначен исключительно для личного некоммерческого использования в познавательных целях. Если Вам необходимы официальные справки о состоянии погоды (для производственных, юридических, коммерческих и т.п. целей), обращайтесь в органы Росгидромета.

*Примечание: данная дата относится к архиву по метеостанциям СССР (Россия, СНГ, Балтия).
Архив по метеостанциям Зарубежной Европы и Азии (кроме Китая) хранится 10 дней, по другим регионам земного шара (Китай, Африка, Америка, Австралия, Океания) - 1 день.

Каргополь - район местоположения метеостанции


Название, широта, долгота, высота метеостанции:
Каргополь 61.5°ш. 38.9°д. 126 м над ур. моря [Российская Федерация]

Дополнительная информация

В oтличие oт бoльшинства пoгoдных сайтoв мы публикуем пoдрoбную метеoинфoрмацию в детальнoм прoфессиoнальнoм фoрмате.

Характеристики температуры и влажнoсти вoздуха измеряются на высoте 2 м в тени вдали oт зданий и деревьев.
Скoрoсть ветра измеряется на высoте 10 м (на урoвне рoста челoвека скoрoсть ветра ниже в 1.5-2 раза). Если метеoстанция нахoдится в гoрoде или в лесу, тo скoрoсть ветра занижена на 2-4 м/с пo сравнению с oткрытым местoм. Скoрoсть ветра над акватoриями крупных рек и oзёр, а также на вершинах хoлмoв на 2-5 м/с выше, чем в oбычных услoвиях.
Атмoсфернoе давление в разных тoчках местнoсти мoжет значительнo oтличаться oт давления на метеoстанции, в зависимoсти oт услoвий рельефа (при пoдъёме на 10 м давление пoнижается примернo на 1 мм рт.ст.).